TimeEST,TemperatureF,Dew PointF,Humidity,Sea Level PressureIn,VisibilityMPH,Wind Direction,Wind SpeedMPH,Gust SpeedMPH,PrecipitationIn,Events,Conditions,WindDirDegrees,DateUTC
12:54 AM,34.0,21.9,61,29.73,10.0,WNW,16.1,25.3,N/A,,Mostly Cloudy,300,2012-12-30 05:54:00
1:54 AM,35.1,21.9,59,29.78,10.0,NW,18.4,25.3,N/A,,Mostly Cloudy,310,2012-12-30 06:54:00
2:54 AM,35.1,21.9,59,29.81,10.0,WNW,17.3,23.0,N/A,,Mostly Cloudy,290,2012-12-30 07:54:00
3:54 AM,35.1,21.0,57,29.83,10.0,WNW,16.1,24.2,N/A,,Mostly Cloudy,300,2012-12-30 08:54:00
4:54 AM,34.0,19.9,56,29.85,10.0,WNW,15.0,23.0,N/A,,Mostly Cloudy,300,2012-12-30 09:54:00
5:54 AM,34.0,18.0,52,29.88,10.0,WNW,12.7,-,N/A,,Partly Cloudy,290,2012-12-30 10:54:00
6:54 AM,33.1,17.1,52,29.91,10.0,WNW,12.7,-,N/A,,Partly Cloudy,290,2012-12-30 11:54:00
7:54 AM,33.1,18.0,54,29.95,10.0,West,12.7,-,N/A,,Partly Cloudy,270,2012-12-30 12:54:00
8:54 AM,34.0,18.0,52,29.99,10.0,WNW,15.0,23.0,N/A,,Partly Cloudy,300,2012-12-30 13:54:00
9:54 AM,36.0,17.1,46,30.03,10.0,WNW,21.9,34.5,N/A,,Scattered Clouds,300,2012-12-30 14:54:00
10:54 AM,37.9,16.0,41,30.04,10.0,WNW,18.4,36.8,N/A,,Scattered Clouds,300,2012-12-30 15:54:00
11:54 AM,39.0,15.1,38,30.04,10.0,WNW,18.4,33.4,N/A,,Scattered Clouds,290,2012-12-30 16:54:00
12:54 PM,39.0,15.1,38,30.05,10.0,NW,27.6,38.0,N/A,,Mostly Cloudy,310,2012-12-30 17:54:00
1:54 PM,39.0,17.1,41,30.06,10.0,WNW,20.7,31.1,N/A,,Mostly Cloudy,290,2012-12-30 18:54:00
2:54 PM,37.9,18.0,45,30.08,10.0,WNW,24.2,32.2,N/A,,Mostly Cloudy,300,2012-12-30 19:54:00
3:54 PM,37.9,17.1,43,30.12,10.0,WNW,11.5,25.3,N/A,,Mostly Cloudy,300,2012-12-30 20:54:00
4:54 PM,37.0,17.1,44,30.16,10.0,WNW,15.0,23.0,N/A,,Mostly Cloudy,300,2012-12-30 21:54:00
5:54 PM,37.0,17.1,44,30.19,10.0,WNW,16.1,24.2,N/A,,Mostly Cloudy,290,2012-12-30 22:54:00
6:54 PM,37.0,17.1,44,30.23,10.0,WNW,6.9,-,N/A,,Mostly Cloudy,300,2012-12-30 23:54:00
7:54 PM,36.0,18.0,48,30.24,10.0,WNW,10.4,-,N/A,,Mostly Cloudy,300,2012-12-31 00:54:00
8:54 PM,35.1,18.0,50,30.22,10.0,NW,12.7,-,N/A,,Partly Cloudy,310,2012-12-31 01:54:00
9:54 PM,35.1,17.1,48,30.23,10.0,NW,10.4,-,N/A,,Clear,310,2012-12-31 02:54:00
10:54 PM,30.9,19.0,61,30.27,10.0,West,9.2,-,N/A,,Clear,260,2012-12-31 03:54:00
11:54 PM,30.0,21.0,69,30.27,10.0,WSW,9.2,-,N/A,,Partly Cloudy,250,2012-12-31 04:54:00